Weather History for Sheridan, WY

Change the Weather History Date:

Saturday, November 10, 2012

  Actual Average Record
Temperature  
Mean Temperature 14 °F 35 °F  
Max Temperature 26 °F 49 °F 72 °F (1956)
Min Temperature 2 °F 22 °F -20 °F (1986)
Degree Days  
Heating Degree Days 51 30  
Month to date heating degree days 235 275  
Since 1 July heating degree days 1009 1183  
Cooling Degree Days 0 0  
Month to date cooling degree days 0 0  
Year to date cooling degree days 664 419  
Moisture  
Dew Point 12 °F    
Average Humidity 85    
Maximum Humidity 96    
Minimum Humidity 73    
Precipitation  
Precipitation 0.59 in 0.03 in 0.44 in (1929)
Month to date precipitation 0.42 0.26  
Year to date precipitation 8.36 13.15  
Sea Level Pressure  
Sea Level Pressure 29.92 in    
Wind  
Wind Speed 15 mph (NW)    
Max Wind Speed 28 mph    
Max Gust Speed 33 mph    
Visibility 6 miles    
Events Snow    
T = Trace of Precipitation, MM = Missing Value Source: NWS Daily Summary

Daily Weather History Graph

Daily Weather History Graph

Search for Another Location

Airport:

Trip Planner

Search our weather history database for the weather conditions in past years. The results will help you decide how hot, cold, wet, or windy it might be!

Date:

Astronomy

Nov. 10, 2012 Rise Set
Actual Time 6:58 AM MST 4:44 PM MST
Civil Twilight 6:27 AM MST 5:15 PM MST
Nautical Twilight 5:52 AM MST 5:50 PM MST
Astronomical Twilight 5:18 AM MST 6:24 PM MST
Moon 2:58 AM MST (11/10) 2:39 PM MST (11/10)
Length of Visible Light 10h 47m
Length of Day
9h 45m
Waning Crescent, 14% of the Moon is Illuminated
Nov 10
Waning Crescent
Nov 13
New
Nov 20
First Quarter
Nov 28
Full
Dec 6
Last Quarter

Hourly Weather History & Observations

Time (MST) Temp. Windchill Dew Point Humidity Pressure Visibility Wind Dir Wind Speed Gust Speed Precip Events Conditions
12:53 AM 23.0 °F 6.3 °F 21.0 °F 92% 29.81 in 2.0 mi NW 26.5 mph 32.2 mph 0.02 in Snow Light Snow
1:07 AM 23.0 °F 6.9 °F 19.4 °F 86% 29.71 in 2.5 mi NW 24.2 mph 32.2 mph 0.00 in Snow Light Snow
1:15 AM 21.2 °F 4.5 °F 19.4 °F 93% 29.72 in 3.0 mi NW 24.2 mph 32.2 mph 0.10 in Snow Light Snow
1:53 AM 21.9 °F 5.1 °F 19.0 °F 89% 29.84 in 6.0 mi WNW 25.3 mph - 0.28 in   Overcast
2:30 AM 21.2 °F 4.5 °F 17.6 °F 86% 29.73 in 2.5 mi NW 24.2 mph - 0.08 in Snow Light Snow
2:40 AM 21.2 °F 5.2 °F 17.6 °F 86% 29.74 in 1.5 mi NW 21.9 mph - 0.11 in Snow Light Snow
2:53 AM 21.0 °F 5.7 °F 18.0 °F 88% 29.87 in 1.2 mi NW 19.6 mph - 0.12 in Snow Light Snow
3:02 AM 21.2 °F 6.4 °F 17.6 °F 86% 29.76 in 3.0 mi NW 18.4 mph - 0.03 in Snow Light Snow
3:43 AM 19.4 °F 2.8 °F 15.8 °F 86% 29.73 in 6.0 mi NW 21.9 mph - 0.04 in   Overcast
3:53 AM 19.9 °F 3.9 °F 16.0 °F 85% 29.85 in 7.0 mi NW 20.7 mph - 0.10 in   Overcast
4:53 AM 19.0 °F 2.4 °F 15.1 °F 85% 29.88 in 5.0 mi NW 21.9 mph 31.1 mph 0.05 in   Overcast
5:53 AM 19.0 °F 2.0 °F 15.1 °F 85% 29.88 in 10.0 mi WNW 23.0 mph 27.6 mph 0.01 in   Overcast
6:53 AM 19.0 °F 2.7 °F 15.1 °F 85% 29.91 in 5.0 mi NW 20.7 mph - 0.00 in Snow Light Snow
7:05 AM 17.6 °F 0.5 °F 14.0 °F 86% 29.79 in 6.0 mi NW 21.9 mph - 0.00 in Snow Light Snow
7:24 AM 17.6 °F 0.9 °F 14.0 °F 86% 29.80 in 1.8 mi NW 20.7 mph 27.6 mph 0.00 in Snow Light Snow
7:32 AM 17.6 °F 1.3 °F 15.8 °F 93% 29.80 in 2.0 mi NW 19.6 mph - 0.00 in Snow Light Snow
7:44 AM 17.6 °F 1.3 °F 14.0 °F 86% 29.81 in 1.8 mi NW 19.6 mph - 0.00 in Snow Light Snow
7:53 AM 18.0 °F 2.2 °F 15.1 °F 88% 29.94 in 1.2 mi NNW 18.4 mph - 0.00 in Snow Light Snow
8:12 AM 17.6 °F 1.7 °F 15.8 °F 93% 29.81 in 0.8 mi NW 18.4 mph - 0.01 in Snow Light Snow
8:20 AM 17.6 °F 1.7 °F 14.0 °F 86% 29.81 in 1.0 mi NW 18.4 mph - 0.01 in Snow Light Snow
8:35 AM 17.6 °F 2.2 °F 14.0 °F 86% 29.81 in 3.0 mi NW 17.3 mph - 0.03 in Snow Light Snow
8:51 AM 17.6 °F 2.7 °F 14.0 °F 86% 29.82 in 8.0 mi NW 16.1 mph - 0.03 in Snow Light Snow
8:53 AM 18.0 °F 3.6 °F 14.0 °F 84% 29.96 in 8.0 mi NW 15.0 mph - 0.03 in Snow Light Snow
9:53 AM 18.0 °F 2.6 °F 14.0 °F 84% 29.96 in 5.0 mi NW 17.3 mph - 0.00 in Snow Light Snow
10:53 AM 18.0 °F 0.6 °F 12.9 °F 81% 29.96 in 3.0 mi NW 23.0 mph - 0.00 in   Haze
11:53 AM 18.0 °F 1.7 °F 12.0 °F 78% 29.96 in 10.0 mi NNW 19.6 mph - N/A   Overcast
12:53 PM 17.1 °F 2.5 °F 10.9 °F 77% 29.99 in 10.0 mi NNW 15.0 mph - N/A   Overcast
1:53 PM 16.0 °F 0.6 °F 10.0 °F 77% 30.01 in 10.0 mi NW 16.1 mph - N/A   Overcast
2:49 PM 15.8 °F 0.9 °F 10.4 °F 79% 29.87 in 10.0 mi NW 15.0 mph - N/A   Mostly Cloudy
2:53 PM 15.1 °F 1.1 °F 9.0 °F 77% 30.04 in 10.0 mi NW 12.7 mph - N/A   Mostly Cloudy
3:18 PM 14.0 °F -0.8 °F 8.6 °F 79% 29.88 in 9.0 mi NNW 13.8 mph - 0.00 in   Overcast
3:53 PM 14.0 °F -0.2 °F 9.0 °F 80% 30.07 in 10.0 mi NW 12.7 mph - 0.00 in   Overcast
4:53 PM 10.9 °F 0.2 °F 7.0 °F 84% 30.10 in 10.0 mi WNW 6.9 mph - N/A   Mostly Cloudy
5:53 PM 6.1 °F -5.6 °F 3.9 °F 91% 30.13 in 10.0 mi West 6.9 mph - N/A   Partly Cloudy
6:53 PM 10.0 °F -0.9 °F 7.0 °F 87% 30.13 in 10.0 mi West 6.9 mph - N/A   Mostly Cloudy
7:00 PM 10.4 °F -0.4 °F 6.8 °F 85% 29.93 in 10.0 mi WNW 6.9 mph - N/A   Overcast
7:38 PM 10.4 °F 0.8 °F 8.6 °F 92% 29.94 in 10.0 mi WNW 5.8 mph - N/A   Overcast
7:53 PM 10.9 °F 0.2 °F 8.1 °F 88% 30.13 in 10.0 mi WNW 6.9 mph - N/A   Overcast
8:53 PM 12.2 °F 0.7 °F 8.6 °F 85% 29.96 in 4.0 mi WNW 8.1 mph - N/A Snow Light Snow
9:53 PM 12.0 °F 1.5 °F 7.0 °F 80% 30.14 in 10.0 mi NNW 6.9 mph - 0.00 in   Overcast
10:50 PM 5.0 °F -5.6 °F 1.4 °F 85% 29.93 in 10.0 mi West 5.8 mph - N/A   Scattered Clouds
10:53 PM 5.0 °F -4.1 °F 1.9 °F 87% 30.14 in 10.0 mi WSW 4.6 mph - N/A   Partly Cloudy
11:53 PM 1.9 °F -10.6 °F -2.0 °F 83% 30.15 in 10.0 mi West 6.9 mph - N/A   Clear